Volver al catálogo

STARLINK-30427

ActivoComunicacionesVLEO
NORAD 57865·PAYLOAD·🇺🇸 United States

Lanzado Sep 16, 2023 desde Cape Canaveral Space Force Station

Loading…

Próximos Pases (próximas 24 horas)

TLE

ActualizadoSource: CelesTrak SupGP

Época: Sep 15, 2026, 02:38 UTC

1 57865C 23144B   26258.11020833  .00016550  00000+0  59934-3 0  2583
2 57865  43.0012 295.3593 0001279 263.2170 252.9242 15.27575917    15

Sigue STARLINK-30427 en tiempo real con AllMySat

Download on the App Store